STARLINK-1480
NORAD 45741 · 2020-038M
PAYLOAD ACTIVE UNKNOWN
§ Identity
- Operator
- —
- Country
- US
- Launch date
- 2020-06-13
- Launch site
- AFETR
- Launch vehicle
- —
- Mass (kg)
- —
- RCS (m²)
- —
Purposes: comms
External: N2YO · Heavens-Above · Gunter
§ Orbital elements
Epoch: 2026-09-19T19:22:23.579040Z
- Period
- 91.30 min
- Inclination
- 53.0485°
- Eccentricity
- 0.0005387
- Mean motion
- 15.77200033 rev/d
- Perigee alt
- 334.8 km
- Apogee alt
- 342.0 km
- Semi-major
- 6,716.5 km
- B*
- 4.0349e-4
- RAAN
- 344.5970°
- Arg perigee
- 8.4918°
- Mean anomaly
- 351.6192°
- Rev number
- 34,687
§ Raw data
STARLINK-14801 45741U 20038M 26262.80721735 .00067364 00000+0 40349-3 0 99932 45741 53.0485 344.5970 0005387 8.4918 351.6192 15.77200033346876
JSON: /api/v1/satellites/45741 · /tle
For live sub-satellite position, see the globe view (requires WebGL).
§ Visibility from observer
Set your observer location to see the next 7 days of passes ≥ 10°. The values pass through the URL so the page stays shareable.
No JS? Fill the form by hand. The geolocation button needs JavaScript.